sat.trackr.live / text

‹ back to catalog

STARLINK-36183

NORAD 67173 · 2025-303L

PAYLOAD ACTIVE UNKNOWN

§ Identity

Operator
Country
US
Launch date
2025-12-17
Launch site
AFETR
Launch vehicle
Mass (kg)
RCS (m²)

Purposes: comms

External: N2YO · Heavens-Above · Gunter

§ Orbital elements

Epoch: 2026-05-24T16:10:59.597760Z

Period
94.27 min
Inclination
43.0023°
Eccentricity
0.0001712
Mean motion
15.27592445 rev/d
Perigee alt
481.8 km
Apogee alt
484.2 km
Semi-major
6,861.1 km
B*
6.4426e-4
RAAN
241.8042°
Arg perigee
272.6878°
Mean anomaly
87.3778°
Rev number
2,435

§ Raw data

STARLINK-361831 67173U 25303L   26144.67430090  .00017515  00000+0  64426-3 0  99962 67173  43.0023 241.8042 0001712 272.6878  87.3778 15.27592445 24358

JSON: /api/v1/satellites/67173 · /tle

For live sub-satellite position, see the globe view (requires WebGL).

§ Visibility from observer

Set your observer location to see the next 7 days of passes ≥ 10°. The values pass through the URL so the page stays shareable.

No JS? Fill the form by hand. The geolocation button needs JavaScript.